Regional Weather Roundup
Issued by NWS Mt. Holly, NJ

Home | Current Version | Previous Version | Text Only | Print | Product List | Glossary On
Versions: 1 2 3 4 5 6 7 8 9 10 11 12 13 14 15 16 17 18 19 20 21 22 23 24 25 26 27 28 29 30 31 32 33 34 35 36 37 38 39 40 41 42 43 44 45 46 47 48 49 50
000
ASUS41 KPHI 180910
RWRPHI

REGIONAL WEATHER ROUNDUP
NATIONAL WEATHER SERVICE MOUNT HOLLY NJ
500 AM EDT THU SEP 18 2014

NOTE:  "FAIR" INDICATES FEW OR NO CLOUDS BELOW 12,000 FEET WITH NO
SIGNIFICANT WEATHER AND/OR OBSTRUCTIONS TO VISIBILITY.

 * = STATION DOES NOT REPORT PRECIPITATION (E.G. RAIN, SNOW, ETC.)
        OR FOG.

NJZ015>026-181000-
SOUTHERN NEW JERSEY

CITY           SKY/WX    TMP DP  RH WIND       PRES   REMARKS
POMONA         CLEAR     51  48  89 NW5       29.97R
RIO GRANDE*    CLEAR     52  46  82 CALM      29.98R
MILLVILLE      CLEAR     49  47  93 CALM      29.98R
WRIGHTSTOWN    CLEAR     49  48  99 E2        29.95S
MOUNT HOLLY    CLEAR     48  46  93 CALM      29.97S
TRENTON        CLEAR     50  47  89 NW3       29.97S

$$
NJZ001>014-181000-
NORTHERN NEW JERSEY

CITY           SKY/WX    TMP DP  RH WIND       PRES   REMARKS
SUSSEX         PTCLDY    43  40  89 CALM      29.99R
ANDOVER*         N/A     43  43 100 CALM      29.99R
MORRISTOWN     MOCLDY    43  41  93 CALM      29.98S
NEWARK         CLEAR     56  51  84 CALM      29.97R
TETERBORO      CLEAR     54  47  77 CALM      29.96S
CALDWELL       CLEAR     48  44  86 CALM      29.98S
SOMERVILLE     CLEAR     45  42  89 CALM      29.96S
ALLAIRE*       CLEAR     54  46  76 NW3       29.97S
TOMS RIVER*    CLEAR     43  39  87 CALM      29.98R

$$
PAZ043-044-047-054-055-060>062-066>071-181000-
EASTERN PENNSYLVANIA

CITY           SKY/WX    TMP DP  RH WIND       PRES   REMARKS
PHILADELPHIA   CLEAR     58  51  78 NW5       29.98R
NORTH PHILA    CLEAR     53  49  86 CALM      29.99R
BLUE BELL      CLEAR     46  45  93 CALM      29.98R
DOYLESTOWN     CLEAR     47  47 100 CALM      29.97S
QUAKERTOWN*    PTCLDY    45  41  87 CALM      29.99R
POTTSTOWN      CLOUDY    48  46  93 CALM      30.00R
LANCASTER      CLOUDY    50  47  89 CALM      29.99R
COATESVILLE    PTCLDY    57  50  77 W3        29.99S
READING        CLEAR     50  47  89 CALM      29.98R
ALLENTOWN      PTCLDY    46  44  93 CALM      29.99R
MOUNT POCONO   PTCLDY    41 N/A N/A CALM      29.99R
HAZLETON       CLOUDY    41  41 100 CALM      30.02S
WILKES BARRE   MOCLDY    47  42  83 E3        29.99R

$$
DEZALL-MDZ008-012-015-019-020-181000-
DELAWARE AND EASTERN MARYLAND

CITY           SKY/WX    TMP DP  RH WIND       PRES   REMARKS
WILMINGTON     PTCLDY    52  50  93 NW5       29.99R
DOVER          CLEAR     55  51  87 W1        29.95R
GEORGETOWN     CLEAR     52  48  86 CALM      29.98R
EASTON         CLOUDY    58  58 100 CALM      30.01R
PATUXENT       CLOUDY    59  56  89 SW3       29.97R
OCEAN CITY     CLEAR     51  48  89 NW3       29.97R
WALLOPS ISLAND CLEAR     55  52  89 NW3       29.97R
CAMBRIDGE      CLEAR     54  50  87 CALM      29.97R
SALISBURY      CLEAR     53  48  83 CALM      29.97S

$$
PAZ001-021-NYZ056-072-MDZ011-DCZ001-181000-
OTHER NEARBY LOCATIONS

CITY           SKY/WX    TMP DP  RH WIND       PRES   REMARKS
HARRISBURG     MOCLDY    55  49  80 CALM      29.98R
STATE COLLEGE  MOCLDY    49  48  97 CALM      30.00R
WILLIAMSPORT   CLOUDY    49  46  90 N3        29.99R
BINGHAMTON     CLEAR     45  43  93 CALM      29.99R FOG
NEW YORK CITY  CLEAR     60  51  72 CALM      29.99S
BALTIMORE      MOCLDY    57  53  86 CALM      29.97R
WASHINGTON DC  CLOUDY    65  53  65 SW3       29.98S

$$



USA.gov is the U.S. government's official web portal to all federal, state and local government web resources and services.